Date String (YYYY-MM-DD hh:mm:ss) UTC,Instrument flags,absolute air pressure of the measurement (hPa),sample flow rate (lpm),inlet stack bypass flow (lpm),air temperature of the measurement (°C),ambient temperature measured by the external sensor (°C),aerosol sample conditioner tube jacket temperature (°C),OPC LED temperature (°C),internal box temperature (°C),relative humidity of the measurement (%),span deviation,mass concentration of particles derived from Lorenz-Mie calculation of OPC scattering (μg/m³),mass concentration of particles derived from Lorenz-Mie calculation of OPC scattering (μg/m³),mass concentration of particles derived from Lorenz-Mie calculation of OPC scattering (μg/m³)
DateTimeUTC,F1_M11,P_M11,Q1_M11,Q2_M11,T1_M11,T2_M11,T3_M11,T4_M11,T5_M11,U1_M11,ZSPAN_M11,X2_M11,X0_M11,X1_M11
2024-03-31 22:00:00,SystemResetWarning,0815.6,5.00,000.00,022.2,021.7,000.0,030.6,024.1,24.7,0001.8,0011.73,0017.23,0010.82
2024-03-31 22:01:00,SystemResetWarning,0815.6,4.99,000.00,022.3,021.7,000.0,030.7,024.1,24.8,0001.8,0011.75,0017.69,0010.84
2024-03-31 22:02:00,SystemResetWarning,0815.6,4.99,000.00,022.3,021.7,000.0,030.7,024.1,24.7,0001.6,0011.79,0017.33,0010.88
2024-03-31 22:03:00,SystemResetWarning,0815.5,5.00,000.00,022.3,021.7,000.0,030.7,024.2,24.9,0001.8,0011.86,0017.39,0010.92
2024-03-31 22:04:00,SystemResetWarning,0815.5,5.01,000.00,022.3,021.8,000.0,030.7,024.2,24.7,0001.9,0011.89,0017.64,0010.93
2024-03-31 22:05:00,SystemResetWarning,0815.5,5.01,000.00,022.3,021.8,000.0,030.7,024.2,24.5,0001.8,0011.96,0018.04,0010.99
2024-03-31 22:06:00,SystemResetWarning,0815.6,5.00,000.00,022.3,021.8,000.0,030.7,024.2,24.6,0001.8,0011.98,0018.97,0011.03
2024-03-31 22:07:00,SystemResetWarning,0815.6,4.99,000.00,022.3,021.8,000.0,030.7,024.2,24.6,0001.8,0011.98,0019.88,0011.03
2024-03-31 22:08:00,SystemResetWarning,0815.6,4.99,000.00,022.3,021.8,000.0,030.7,024.2,24.7,0001.7,0011.94,0019.87,0011.01
2024-03-31 22:09:00,SystemResetWarning,0815.6,4.99,000.00,022.3,021.8,000.0,030.7,024.2,24.7,0001.4,0011.93,0019.99,0010.99
2024-03-31 22:10:00,SystemResetWarning,0815.6,5.00,000.00,022.4,021.8,000.0,030.8,024.2,24.5,0001.3,0011.91,0020.35,0010.98
2024-03-31 22:11:00,SystemResetWarning,0815.6,5.01,000.00,022.4,021.8,000.0,030.8,024.2,24.2,0001.3,0011.96,0020.48,0010.99
2024-03-31 22:12:00,SystemResetWarning,0815.6,5.00,000.00,022.4,021.8,000.0,030.8,024.2,24.1,0001.4,0011.98,0020.10,0010.97
2024-03-31 22:13:00,SystemResetWarning,0815.6,4.99,000.00,022.4,021.8,000.0,030.8,024.3,24.1,0001.5,0011.94,0020.52,0010.93
2024-03-31 22:14:00,SystemResetWarning,0815.6,4.99,000.00,022.4,021.8,000.0,030.8,024.3,24.3,0001.6,0011.91,0020.51,0010.90
2024-03-31 22:15:00,SystemResetWarning,0815.6,5.00,000.00,022.4,021.8,000.0,030.8,024.3,24.2,0001.5,0011.86,0020.28,0010.89
2024-03-31 22:16:00,SystemResetWarning,0815.6,5.01,000.00,022.4,021.9,000.0,030.8,024.3,24.2,0001.8,0011.83,0020.51,0010.88
2024-03-31 22:17:00,SystemResetWarning,0815.6,5.01,000.00,022.4,021.9,000.0,030.8,024.3,24.2,0001.8,0011.82,0019.24,0010.86
2024-03-31 22:18:00,SystemResetWarning,0815.5,5.00,000.00,022.4,021.9,000.0,030.8,024.3,24.0,0001.9,0011.85,0017.87,0010.86
2024-03-31 22:19:00,SystemResetWarning,0815.4,4.99,000.00,022.4,021.9,000.0,030.8,024.3,24.1,0001.9,0011.92,0018.11,0010.89
2024-03-31 22:20:00,SystemResetWarning,0815.3,4.99,000.00,022.5,021.9,000.0,030.9,024.3,24.2,0001.9,0011.93,0018.37,0010.90
2024-03-31 22:21:00,SystemResetWarning,0815.2,5.01,000.00,022.5,021.9,000.0,030.9,024.3,24.4,0001.9,0011.88,0018.17,0010.90
2024-03-31 22:22:00,SystemResetWarning,0815.2,5.00,000.00,022.5,021.9,000.0,030.9,024.3,24.5,0001.7,0011.87,0018.25,0010.89
2024-03-31 22:23:00,SystemResetWarning,0815.3,5.00,000.00,022.5,021.9,000.0,030.9,024.3,24.3,0001.5,0011.86,0018.39,0010.89
2024-03-31 22:24:00,SystemResetWarning,0815.3,5.00,000.00,022.5,021.9,000.0,030.9,024.3,24.6,0001.5,0011.86,0017.82,0010.92
2024-03-31 22:25:00,SystemResetWarning,0815.3,5.00,000.00,022.5,021.9,000.0,030.9,024.3,24.7,0001.1,0011.83,0017.80,0010.94
2024-03-31 22:26:00,SystemResetWarning,0815.3,5.00,000.00,022.5,021.9,000.0,030.9,024.4,24.9,0001.0,0011.85,0018.22,0010.94
2024-03-31 22:27:00,SystemResetWarning,0815.3,5.00,000.00,022.5,021.9,000.0,030.9,024.4,24.7,0000.7,0011.86,0017.59,0010.95
2024-03-31 22:28:00,SystemResetWarning,0815.2,5.00,000.00,022.5,021.9,000.0,030.9,024.4,24.4,0000.5,0011.88,0017.63,0010.99
2024-03-31 22:29:00,SystemResetWarning,0815.2,5.00,000.00,022.5,022.0,000.0,031.0,024.4,24.4,0000.3,0011.91,0017.90,0011.04
2024-03-31 22:30:00,SystemResetWarning,0815.1,5.00,000.00,022.6,022.0,000.0,031.0,024.4,24.3,0000.5,0011.95,0017.67,0011.08
2024-03-31 22:31:00,SystemResetWarning,0815.1,5.00,000.00,022.6,022.0,000.0,031.0,024.4,24.3,0000.7,0011.97,0017.18,0011.13
2024-03-31 22:32:00,SystemResetWarning,0815.2,5.00,000.00,022.6,022.0,000.0,031.0,024.4,24.4,0000.7,0012.09,0018.18,0011.20
2024-03-31 22:33:00,SystemResetWarning,0815.3,5.01,000.00,022.6,022.0,000.0,031.0,024.4,24.6,0000.7,0012.16,0018.42,0011.27
2024-03-31 22:34:00,SystemResetWarning,0815.4,4.99,000.00,022.6,022.0,000.0,031.0,024.4,24.7,0000.7,0012.24,0018.80,0011.33
2024-03-31 22:35:00,SystemResetWarning,0815.5,4.99,000.00,022.6,022.0,000.0,031.0,024.4,24.5,0000.8,0012.31,0019.23,0011.38
2024-03-31 22:36:00,SystemResetWarning,0815.6,5.00,000.00,022.6,022.0,000.0,031.0,024.4,24.8,0000.8,0012.36,0019.32,0011.40
2024-03-31 22:37:00,SystemResetWarning,0815.6,5.00,000.00,022.6,022.0,000.0,031.0,024.4,25.0,0000.7,0012.35,0019.67,0011.43
2024-03-31 22:38:00,SystemResetWarning,0815.5,5.01,000.00,022.6,022.0,000.0,031.0,024.4,24.8,0000.5,0012.40,0020.88,0011.48
2024-03-31 22:39:00,SystemResetWarning,0815.4,5.00,000.00,022.6,022.0,000.0,031.0,024.4,24.7,0000.6,0012.42,0021.30,0011.50
2024-03-31 22:40:00,SystemResetWarning,0815.3,4.99,000.00,022.6,022.0,000.0,031.0,024.4,24.6,0000.5,0012.47,0021.30,0011.52
2024-03-31 22:41:00,SystemResetWarning,0815.3,4.99,000.00,022.6,022.0,000.0,031.0,024.5,24.4,0000.2,0012.47,0021.70,0011.54
2024-03-31 22:42:00,SystemResetWarning,0815.3,4.99,000.00,022.6,022.0,000.0,031.0,024.5,24.3,0000.3,0012.51,0022.72,0011.55
2024-03-31 22:43:00,SystemResetWarning,0815.3,5.01,000.00,022.6,022.0,000.0,031.0,024.5,24.4,0000.4,0012.48,0022.20,0011.55
2024-03-31 22:44:00,SystemResetWarning,0815.3,5.01,000.00,022.6,022.0,000.0,031.1,024.5,24.4,0000.4,0012.50,0023.50,0011.55
2024-03-31 22:45:00,SystemResetWarning,0815.3,5.00,000.00,022.6,022.0,000.0,031.1,024.5,24.5,0000.4,0012.49,0023.60,0011.57
2024-03-31 22:46:00,SystemResetWarning,0815.4,5.00,000.00,022.6,022.0,000.0,031.1,024.5,24.4,0000.4,0012.50,0023.62,0011.61
2024-03-31 22:47:00,SystemResetWarning,0815.5,5.00,000.00,022.6,022.0,000.0,031.1,024.5,24.7,0000.8,0012.57,0023.72,0011.66
2024-03-31 22:48:00,SystemResetWarning,0815.4,5.01,000.00,022.6,022.0,000.0,031.1,024.5,24.8,0000.8,0012.64,0023.40,0011.70
2024-03-31 22:49:00,SystemResetWarning,0815.4,5.00,000.00,022.7,022.0,000.0,031.1,024.5,24.8,0001.3,0012.70,0022.28,0011.73
2024-03-31 22:50:00,SystemResetWarning,0815.3,5.00,000.00,022.7,022.0,000.0,031.1,024.5,24.7,0001.4,0012.77,0022.59,0011.76
2024-03-31 22:51:00,SystemResetWarning,0815.3,5.00,000.00,022.7,022.0,000.0,031.1,024.5,24.6,0001.4,0012.74,0022.27,0011.76
2024-03-31 22:52:00,SystemResetWarning,0815.3,5.00,000.00,022.7,022.0,000.0,031.1,024.5,24.6,0001.4,0012.73,0022.14,0011.75
2024-03-31 22:53:00,SystemResetWarning,0815.4,5.00,000.00,022.7,022.0,000.0,031.1,024.5,24.5,0001.3,0012.73,0021.59,0011.75
2024-03-31 22:54:00,SystemResetWarning,0815.4,5.00,000.00,022.7,022.0,000.0,031.1,024.5,24.5,0001.3,0012.70,0022.46,0011.72
2024-03-31 22:55:00,SystemResetWarning,0815.4,5.00,000.00,022.7,022.0,000.0,031.1,024.5,24.6,0001.3,0012.68,0021.54,0011.71
2024-03-31 22:56:00,SystemResetWarning,0815.3,5.00,000.00,022.7,022.0,000.0,031.1,024.5,24.5,0001.5,0012.67,0021.66,0011.70
2024-03-31 22:57:00,SystemResetWarning,0815.3,5.01,000.00,022.7,022.1,000.0,031.1,024.5,24.5,0001.6,0012.66,0021.09,0011.66
2024-03-31 22:58:00,SystemResetWarning,0815.3,5.00,000.00,022.7,022.1,000.0,031.2,024.5,24.5,0001.3,0012.60,0021.25,0011.62
2024-03-31 22:59:00,SystemResetWarning,0815.3,4.99,000.00,022.7,022.1,000.0,031.2,024.5,24.3,0001.3,0012.53,0020.98,0011.58
